Year,Month,Day,Hour,Minute,Value (Times are PST for insolation in W/m^2)
2023,08,09,00,00,0.00
2023,08,09,00,01,0.00
2023,08,09,00,02,0.00
2023,08,09,00,03,0.00
2023,08,09,00,04,0.00
2023,08,09,00,05,0.00
2023,08,09,00,06,0.00
2023,08,09,00,07,0.00
2023,08,09,00,08,0.00
2023,08,09,00,09,0.00
2023,08,09,00,10,0.00
2023,08,09,00,11,0.00
2023,08,09,00,12,0.00
2023,08,09,00,13,0.00
2023,08,09,00,14,0.00
2023,08,09,00,15,0.00
2023,08,09,00,16,0.00
2023,08,09,00,17,0.00
2023,08,09,00,18,0.00
2023,08,09,00,19,0.00
2023,08,09,00,20,0.00
2023,08,09,00,21,0.00
2023,08,09,00,22,0.00
2023,08,09,00,23,0.00
2023,08,09,00,24,0.00
2023,08,09,00,25,0.00
2023,08,09,00,26,0.00
2023,08,09,00,27,0.00
2023,08,09,00,28,0.00
2023,08,09,00,29,0.00
2023,08,09,00,30,0.00
2023,08,09,00,31,0.00
2023,08,09,00,32,0.00
2023,08,09,00,33,0.00
2023,08,09,00,34,0.00
2023,08,09,00,35,0.00
2023,08,09,00,36,0.00
2023,08,09,00,37,0.00
2023,08,09,00,38,0.00
2023,08,09,00,39,0.00
2023,08,09,00,40,0.00
2023,08,09,00,41,0.00
2023,08,09,00,42,0.00
2023,08,09,00,43,0.00
2023,08,09,00,44,0.00
2023,08,09,00,45,0.00
2023,08,09,00,46,0.00
2023,08,09,00,47,0.00
2023,08,09,00,48,0.00
2023,08,09,00,49,0.00
2023,08,09,00,50,0.00
2023,08,09,00,51,0.00
2023,08,09,00,52,0.00
2023,08,09,00,53,0.00
2023,08,09,00,54,0.00
2023,08,09,00,55,0.00
2023,08,09,00,56,0.00
2023,08,09,00,57,0.00
2023,08,09,00,58,0.00
2023,08,09,00,59,0.00
2023,08,09,01,00,0.00
2023,08,09,01,01,0.00
2023,08,09,01,02,0.00
2023,08,09,01,03,0.00
2023,08,09,01,04,0.00
2023,08,09,01,05,0.00
2023,08,09,01,06,0.00
2023,08,09,01,07,0.00
2023,08,09,01,08,0.00
2023,08,09,01,09,0.00
2023,08,09,01,10,0.00
2023,08,09,01,11,0.00
2023,08,09,01,12,0.00
2023,08,09,01,13,0.00
2023,08,09,01,14,0.00
2023,08,09,01,15,0.00
2023,08,09,01,16,0.00
2023,08,09,01,17,0.00
2023,08,09,01,18,0.00
2023,08,09,01,19,0.00
2023,08,09,01,20,0.00
2023,08,09,01,21,0.00
2023,08,09,01,22,0.00
2023,08,09,01,23,0.00
2023,08,09,01,24,0.00
2023,08,09,01,25,0.00
2023,08,09,01,26,0.00
2023,08,09,01,27,0.00
2023,08,09,01,28,0.00
2023,08,09,01,29,0.00
2023,08,09,01,30,0.00
2023,08,09,01,31,0.00
2023,08,09,01,32,0.00
2023,08,09,01,33,0.00
2023,08,09,01,34,0.00
2023,08,09,01,35,0.00
2023,08,09,01,36,0.00
2023,08,09,01,37,0.00
2023,08,09,01,38,0.00
2023,08,09,01,39,0.00
2023,08,09,01,40,0.00
2023,08,09,01,41,0.00
2023,08,09,01,42,0.00
2023,08,09,01,43,0.00
2023,08,09,01,44,0.00
2023,08,09,01,45,0.00
2023,08,09,01,46,0.00
2023,08,09,01,47,0.00
2023,08,09,01,48,0.00
2023,08,09,01,49,0.00
2023,08,09,01,50,0.00
2023,08,09,01,51,0.00
2023,08,09,01,52,0.00
2023,08,09,01,53,0.00
2023,08,09,01,54,0.00
2023,08,09,01,55,0.00
2023,08,09,01,56,0.00
2023,08,09,01,57,0.00
2023,08,09,01,58,0.00
2023,08,09,01,59,0.00
2023,08,09,02,00,0.00
2023,08,09,02,01,0.00
2023,08,09,02,02,0.00
2023,08,09,02,03,0.00
2023,08,09,02,04,0.00
2023,08,09,02,05,0.00
2023,08,09,02,06,0.00
2023,08,09,02,07,0.00
2023,08,09,02,08,0.00
2023,08,09,02,09,0.00
2023,08,09,02,10,0.00
2023,08,09,02,11,0.00
2023,08,09,02,12,0.00
2023,08,09,02,13,0.00
2023,08,09,02,14,0.00
2023,08,09,02,15,0.00
2023,08,09,02,16,0.00
2023,08,09,02,17,0.00
2023,08,09,02,18,0.00
2023,08,09,02,19,0.00
2023,08,09,02,20,0.00
2023,08,09,02,21,0.00
2023,08,09,02,22,0.00
2023,08,09,02,23,0.00
2023,08,09,02,24,0.00
2023,08,09,02,25,0.00
2023,08,09,02,26,0.00
2023,08,09,02,27,0.00
2023,08,09,02,28,0.00
2023,08,09,02,29,0.00
2023,08,09,02,30,0.00
2023,08,09,02,31,0.00
2023,08,09,02,32,0.00
2023,08,09,02,33,0.00
2023,08,09,02,34,0.00
2023,08,09,02,35,0.00
2023,08,09,02,36,0.00
2023,08,09,02,37,0.00
2023,08,09,02,38,0.00
2023,08,09,02,39,0.00
2023,08,09,02,40,0.00
2023,08,09,02,41,0.00
2023,08,09,02,42,0.00
2023,08,09,02,43,0.00
2023,08,09,02,44,0.00
2023,08,09,02,45,0.00
2023,08,09,02,46,0.00
2023,08,09,02,47,0.00
2023,08,09,02,48,0.00
2023,08,09,02,49,0.00
2023,08,09,02,50,0.00
2023,08,09,02,51,0.00
2023,08,09,02,52,0.00
2023,08,09,02,53,0.00
2023,08,09,02,54,0.00
2023,08,09,02,55,0.00
2023,08,09,02,56,0.00
2023,08,09,02,57,0.00
2023,08,09,02,58,0.00
2023,08,09,02,59,0.00
2023,08,09,03,00,0.00
2023,08,09,03,01,0.00
2023,08,09,03,02,0.00
2023,08,09,03,03,0.00
2023,08,09,03,04,0.00
2023,08,09,03,05,0.00
2023,08,09,03,06,0.00
2023,08,09,03,07,0.00
2023,08,09,03,08,0.00
2023,08,09,03,09,0.00
2023,08,09,03,10,0.00
2023,08,09,03,11,0.00
2023,08,09,03,12,0.00
2023,08,09,03,13,0.00
2023,08,09,03,14,0.00
2023,08,09,03,15,0.00
2023,08,09,03,16,0.00
2023,08,09,03,17,0.00
2023,08,09,03,18,0.00
2023,08,09,03,19,0.00
2023,08,09,03,20,0.00
2023,08,09,03,21,0.00
2023,08,09,03,22,0.00
2023,08,09,03,23,0.00
2023,08,09,03,24,0.00
2023,08,09,03,25,0.00
2023,08,09,03,26,0.00
2023,08,09,03,27,0.00
2023,08,09,03,28,0.00
2023,08,09,03,29,0.00
2023,08,09,03,30,0.00
2023,08,09,03,31,0.00
2023,08,09,03,32,0.00
2023,08,09,03,33,0.00
2023,08,09,03,34,0.00
2023,08,09,03,35,0.00
2023,08,09,03,36,0.00
2023,08,09,03,37,0.00
2023,08,09,03,38,0.00
2023,08,09,03,39,0.00
2023,08,09,03,40,0.00
2023,08,09,03,41,0.00
2023,08,09,03,42,0.00
2023,08,09,03,43,0.00
2023,08,09,03,44,0.00
2023,08,09,03,45,0.00
2023,08,09,03,46,0.00
2023,08,09,03,47,0.00
2023,08,09,03,48,0.00
2023,08,09,03,49,0.00
2023,08,09,03,50,0.00
2023,08,09,03,51,0.00
2023,08,09,03,52,0.00
2023,08,09,03,53,0.00
2023,08,09,03,54,0.00
2023,08,09,03,55,0.00
2023,08,09,03,56,0.00
2023,08,09,03,57,0.00
2023,08,09,03,58,0.00
2023,08,09,03,59,0.00
2023,08,09,04,00,0.00
2023,08,09,04,01,0.00
2023,08,09,04,02,0.00
2023,08,09,04,03,0.00
2023,08,09,04,04,0.00
2023,08,09,04,05,0.00
2023,08,09,04,06,0.00
2023,08,09,04,07,0.00
2023,08,09,04,08,0.00
2023,08,09,04,09,0.00
2023,08,09,04,10,0.00
2023,08,09,04,11,0.00
2023,08,09,04,12,0.00
2023,08,09,04,13,0.00
2023,08,09,04,14,0.00
2023,08,09,04,15,0.00
2023,08,09,04,16,0.00
2023,08,09,04,17,0.00
2023,08,09,04,18,0.00
2023,08,09,04,19,0.00
2023,08,09,04,20,0.00
2023,08,09,04,21,0.00
2023,08,09,04,22,0.00
2023,08,09,04,23,0.00
2023,08,09,04,24,0.00
2023,08,09,04,25,0.00
2023,08,09,04,26,0.00
2023,08,09,04,27,0.00
2023,08,09,04,28,0.00
2023,08,09,04,29,0.00
2023,08,09,04,30,0.00
2023,08,09,04,31,0.00
2023,08,09,04,32,0.00
2023,08,09,04,33,0.00
2023,08,09,04,34,0.00
2023,08,09,04,35,0.00
2023,08,09,04,36,0.00
2023,08,09,04,37,0.00
2023,08,09,04,38,0.00
2023,08,09,04,39,0.00
2023,08,09,04,40,0.00
2023,08,09,04,41,0.00
2023,08,09,04,42,0.00
2023,08,09,04,43,0.00
2023,08,09,04,44,0.00
2023,08,09,04,45,0.00
2023,08,09,04,46,0.00
2023,08,09,04,47,0.00
2023,08,09,04,48,0.00
2023,08,09,04,49,0.00
2023,08,09,04,50,0.00
2023,08,09,04,51,0.00
2023,08,09,04,52,0.00
2023,08,09,04,53,0.00
2023,08,09,04,54,0.00
2023,08,09,04,55,0.00
2023,08,09,04,56,0.00
2023,08,09,04,57,0.00
2023,08,09,04,58,0.00
2023,08,09,04,59,0.00
2023,08,09,05,00,0.00
2023,08,09,05,01,0.00
2023,08,09,05,02,0.00
2023,08,09,05,03,0.00
2023,08,09,05,04,0.00
2023,08,09,05,05,0.00
2023,08,09,05,06,0.00
2023,08,09,05,07,0.00
2023,08,09,05,08,0.00
2023,08,09,05,09,0.00
2023,08,09,05,10,0.00
2023,08,09,05,11,0.00
2023,08,09,05,12,0.00
2023,08,09,05,13,0.00
2023,08,09,05,14,0.00
2023,08,09,05,15,0.00
2023,08,09,05,16,0.00
2023,08,09,05,17,0.00
2023,08,09,05,18,0.00
2023,08,09,05,19,0.00
2023,08,09,05,20,0.00
2023,08,09,05,21,0.00
2023,08,09,05,22,0.00
2023,08,09,05,23,0.00
2023,08,09,05,24,0.00
2023,08,09,05,25,0.00
2023,08,09,05,26,0.00
2023,08,09,05,27,0.00
2023,08,09,05,28,0.00
2023,08,09,05,29,0.00
2023,08,09,05,30,0.00
2023,08,09,05,31,0.00
2023,08,09,05,32,0.00
2023,08,09,05,33,0.00
2023,08,09,05,34,0.00
2023,08,09,05,35,0.00
2023,08,09,05,36,0.00
2023,08,09,05,37,0.00
2023,08,09,05,38,0.00
2023,08,09,05,39,0.00
2023,08,09,05,40,0.00
2023,08,09,05,41,0.00
2023,08,09,05,42,0.00
2023,08,09,05,43,0.00
2023,08,09,05,44,0.00
2023,08,09,05,45,0.00
2023,08,09,05,46,0.00
2023,08,09,05,47,0.00
2023,08,09,05,48,0.00
2023,08,09,05,49,0.00
2023,08,09,05,50,0.00
2023,08,09,05,51,0.00
2023,08,09,05,52,0.00
2023,08,09,05,53,0.00
2023,08,09,05,54,0.00
2023,08,09,05,55,0.00
2023,08,09,05,56,0.00
2023,08,09,05,57,0.00
2023,08,09,05,58,0.00
2023,08,09,05,59,0.00
2023,08,09,06,00,0.00
2023,08,09,06,01,0.00
2023,08,09,06,02,0.00
2023,08,09,06,03,0.00
2023,08,09,06,04,0.00
2023,08,09,06,05,0.00
2023,08,09,06,06,0.00
2023,08,09,06,07,0.00
2023,08,09,06,08,1.20
2023,08,09,06,09,5.00
2023,08,09,06,10,5.00
2023,08,09,06,11,5.00
2023,08,09,06,12,5.00
2023,08,09,06,13,5.00
2023,08,09,06,14,5.00
2023,08,09,06,15,5.50
2023,08,09,06,16,7.00
2023,08,09,06,17,7.00
2023,08,09,06,18,7.00
2023,08,09,06,19,7.00
2023,08,09,06,20,8.70
2023,08,09,06,21,9.00
2023,08,09,06,22,9.50
2023,08,09,06,23,11.00
2023,08,09,06,24,11.00
2023,08,09,06,25,11.00
2023,08,09,06,26,11.70
2023,08,09,06,27,12.00
2023,08,09,06,28,12.00
2023,08,09,06,29,12.00
2023,08,09,06,30,12.00
2023,08,09,06,31,13.00
2023,08,09,06,32,14.00
2023,08,09,06,33,14.00
2023,08,09,06,34,14.00
2023,08,09,06,35,14.20
2023,08,09,06,36,16.40
2023,08,09,06,37,18.40
2023,08,09,06,38,20.00
2023,08,09,06,39,21.00
2023,08,09,06,40,22.40
2023,08,09,06,41,23.00
2023,08,09,06,42,25.00
2023,08,09,06,43,25.00
2023,08,09,06,44,25.00
2023,08,09,06,45,25.00
2023,08,09,06,46,25.00
2023,08,09,06,47,25.00
2023,08,09,06,48,25.90
2023,08,09,06,49,26.20
2023,08,09,06,50,28.00
2023,08,09,06,51,28.70
2023,08,09,06,52,30.90
2023,08,09,06,53,32.60
2023,08,09,06,54,36.00
2023,08,09,06,55,39.50
2023,08,09,06,56,46.00
2023,08,09,06,57,49.50
2023,08,09,06,58,51.00
2023,08,09,06,59,51.00
2023,08,09,07,00,49.80
2023,08,09,07,01,49.00
2023,08,09,07,02,50.70
2023,08,09,07,03,52.90
2023,08,09,07,04,53.00
2023,08,09,07,05,53.00
2023,08,09,07,06,52.00
2023,08,09,07,07,49.80
2023,08,09,07,08,50.50
2023,08,09,07,09,53.50
2023,08,09,07,10,54.60
2023,08,09,07,11,60.50
2023,08,09,07,12,62.30
2023,08,09,07,13,64.00
2023,08,09,07,14,66.20
2023,08,09,07,15,69.20
2023,08,09,07,16,70.00
2023,08,09,07,17,71.70
2023,08,09,07,18,69.80
2023,08,09,07,19,69.00
2023,08,09,07,20,69.00
2023,08,09,07,21,70.80
2023,08,09,07,22,73.50
2023,08,09,07,23,76.50
2023,08,09,07,24,78.90
2023,08,09,07,25,79.00
2023,08,09,07,26,78.30
2023,08,09,07,27,76.50
2023,08,09,07,28,74.70
2023,08,09,07,29,74.00
2023,08,09,07,30,74.00
2023,08,09,07,31,74.20
2023,08,09,07,32,76.80
2023,08,09,07,33,80.40
2023,08,09,07,34,84.40
2023,08,09,07,35,89.00
2023,08,09,07,36,96.20
2023,08,09,07,37,103.10
2023,08,09,07,38,109.20
2023,08,09,07,39,115.30
2023,08,09,07,40,121.10
2023,08,09,07,41,125.00
2023,08,09,07,42,128.80
2023,08,09,07,43,135.20
2023,08,09,07,44,146.40
2023,08,09,07,45,148.30
2023,08,09,07,46,142.50
2023,08,09,07,47,145.80
2023,08,09,07,48,169.80
2023,08,09,07,49,193.00
2023,08,09,07,50,350.50
2023,08,09,07,51,407.20
2023,08,09,07,52,387.00
2023,08,09,07,53,339.50
2023,08,09,07,54,205.40
2023,08,09,07,55,218.00
2023,08,09,07,56,218.00
2023,08,09,07,57,213.10
2023,08,09,07,58,181.20
2023,08,09,07,59,166.40
2023,08,09,08,00,163.00
2023,08,09,08,01,163.70
2023,08,09,08,02,167.70
2023,08,09,08,03,171.00
2023,08,09,08,04,168.00
2023,08,09,08,05,162.80
2023,08,09,08,06,160.00
2023,08,09,08,07,160.00
2023,08,09,08,08,160.00
2023,08,09,08,09,161.50
2023,08,09,08,10,164.20
2023,08,09,08,11,166.40
2023,08,09,08,12,171.20
2023,08,09,08,13,176.40
2023,08,09,08,14,180.30
2023,08,09,08,15,185.00
2023,08,09,08,16,207.50
2023,08,09,08,17,203.60
2023,08,09,08,18,190.90
2023,08,09,08,19,226.10
2023,08,09,08,20,201.60
2023,08,09,08,21,267.00
2023,08,09,08,22,267.00
2023,08,09,08,23,267.00
2023,08,09,08,24,219.60
2023,08,09,08,25,192.00
2023,08,09,08,26,196.20
2023,08,09,08,27,179.10
2023,08,09,08,28,189.70
2023,08,09,08,29,254.10
2023,08,09,08,30,298.00
2023,08,09,08,31,252.80
2023,08,09,08,32,193.40
2023,08,09,08,33,180.70
2023,08,09,08,34,190.00
2023,08,09,08,35,236.50
2023,08,09,08,36,376.00
2023,08,09,08,37,287.40
2023,08,09,08,38,234.80
2023,08,09,08,39,297.10
2023,08,09,08,40,289.90
2023,08,09,08,41,287.00
2023,08,09,08,42,252.50
2023,08,09,08,43,156.40
2023,08,09,08,44,192.30
2023,08,09,08,45,219.20
2023,08,09,08,46,248.50
2023,08,09,08,47,292.90
2023,08,09,08,48,315.90
2023,08,09,08,49,266.50
2023,08,09,08,50,269.50
2023,08,09,08,51,265.00
2023,08,09,08,52,380.70
2023,08,09,08,53,382.20
2023,08,09,08,54,341.60
2023,08,09,08,55,326.60
2023,08,09,08,56,248.00
2023,08,09,08,57,191.60
2023,08,09,08,58,172.00
2023,08,09,08,59,157.40
2023,08,09,09,00,149.50
2023,08,09,09,01,142.90
2023,08,09,09,02,150.10
2023,08,09,09,03,157.80
2023,08,09,09,04,166.10
2023,08,09,09,05,173.00
2023,08,09,09,06,175.20
2023,08,09,09,07,179.80
2023,08,09,09,08,185.20
2023,08,09,09,09,193.70
2023,08,09,09,10,202.20
2023,08,09,09,11,211.40
2023,08,09,09,12,218.50
2023,08,09,09,13,223.60
2023,08,09,09,14,227.90
2023,08,09,09,15,231.60
2023,08,09,09,16,232.00
2023,08,09,09,17,232.50
2023,08,09,09,18,234.00
2023,08,09,09,19,234.00
2023,08,09,09,20,235.20
2023,08,09,09,21,236.00
2023,08,09,09,22,236.00
2023,08,09,09,23,239.60
2023,08,09,09,24,244.50
2023,08,09,09,25,251.80
2023,08,09,09,26,256.50
2023,08,09,09,27,262.20
2023,08,09,09,28,266.50
2023,08,09,09,29,254.40
2023,08,09,09,30,234.40
2023,08,09,09,31,215.50
2023,08,09,09,32,196.40
2023,08,09,09,33,183.50
2023,08,09,09,34,174.40
2023,08,09,09,35,171.30
2023,08,09,09,36,171.00
2023,08,09,09,37,177.50
2023,08,09,09,38,188.30
2023,08,09,09,39,199.40
2023,08,09,09,40,205.40
2023,08,09,09,41,209.60
2023,08,09,09,42,213.20
2023,08,09,09,43,214.00
2023,08,09,09,44,214.00
2023,08,09,09,45,213.80
2023,08,09,09,46,213.00
2023,08,09,09,47,213.50
2023,08,09,09,48,218.40
2023,08,09,09,49,228.70
2023,08,09,09,50,237.90
2023,08,09,09,51,243.10
2023,08,09,09,52,245.50
2023,08,09,09,53,252.90
2023,08,09,09,54,261.00
2023,08,09,09,55,264.60
2023,08,09,09,56,269.20
2023,08,09,09,57,282.90
2023,08,09,09,58,300.10
2023,08,09,09,59,310.80
2023,08,09,10,00,318.80
2023,08,09,10,01,323.00
2023,08,09,10,02,323.00
2023,08,09,10,03,323.00
2023,08,09,10,04,292.40
2023,08,09,10,05,293.50
2023,08,09,10,06,306.40
2023,08,09,10,07,310.50
2023,08,09,10,08,317.50
2023,08,09,10,09,317.70
2023,08,09,10,10,315.30
2023,08,09,10,11,311.60
2023,08,09,10,12,311.00
2023,08,09,10,13,311.00
2023,08,09,10,14,311.70
2023,08,09,10,15,313.90
2023,08,09,10,16,313.70
2023,08,09,10,17,310.10
2023,08,09,10,18,303.00
2023,08,09,10,19,297.50
2023,08,09,10,20,305.20
2023,08,09,10,21,317.20
2023,08,09,10,22,322.50
2023,08,09,10,23,321.20
2023,08,09,10,24,316.50
2023,08,09,10,25,315.00
2023,08,09,10,26,319.80
2023,08,09,10,27,318.20
2023,08,09,10,28,305.00
2023,08,09,10,29,286.00
2023,08,09,10,30,271.40
2023,08,09,10,31,263.20
2023,08,09,10,32,264.70
2023,08,09,10,33,273.50
2023,08,09,10,34,272.50
2023,08,09,10,35,264.50
2023,08,09,10,36,256.90
2023,08,09,10,37,251.80
2023,08,09,10,38,260.80
2023,08,09,10,39,280.00
2023,08,09,10,40,301.10
2023,08,09,10,41,312.00
2023,08,09,10,42,315.00
2023,08,09,10,43,311.10
2023,08,09,10,44,304.80
2023,08,09,10,45,297.10
2023,08,09,10,46,295.00
2023,08,09,10,47,302.40
2023,08,09,10,48,310.80
2023,08,09,10,49,318.50
2023,08,09,10,50,327.30
2023,08,09,10,51,337.40
2023,08,09,10,52,345.90
2023,08,09,10,53,345.50
2023,08,09,10,54,338.40
2023,08,09,10,55,328.30
2023,08,09,10,56,317.50
2023,08,09,10,57,302.20
2023,08,09,10,58,284.40
2023,08,09,10,59,271.40
2023,08,09,11,00,264.80
2023,08,09,11,01,262.80
2023,08,09,11,02,269.20
2023,08,09,11,03,280.40
2023,08,09,11,04,293.00
2023,08,09,11,05,304.40
2023,08,09,11,06,314.00
2023,08,09,11,07,338.40
2023,08,09,11,08,335.70
2023,08,09,11,09,352.80
2023,08,09,11,10,367.80
2023,08,09,11,11,366.60
2023,08,09,11,12,355.20
2023,08,09,11,13,335.40
2023,08,09,11,14,312.10
2023,08,09,11,15,294.90
2023,08,09,11,16,285.60
2023,08,09,11,17,277.90
2023,08,09,11,18,267.00
2023,08,09,11,19,255.10
2023,08,09,11,20,246.00
2023,08,09,11,21,236.80
2023,08,09,11,22,226.10
2023,08,09,11,23,212.40
2023,08,09,11,24,204.60
2023,08,09,11,25,202.00
2023,08,09,11,26,204.40
2023,08,09,11,27,214.40
2023,08,09,11,28,233.30
2023,08,09,11,29,251.50
2023,08,09,11,30,266.40
2023,08,09,11,31,278.50
2023,08,09,11,32,286.30
2023,08,09,11,33,294.20
2023,08,09,11,34,301.90
2023,08,09,11,35,319.30
2023,08,09,11,36,332.80
2023,08,09,11,37,347.00
2023,08,09,11,38,359.90
2023,08,09,11,39,378.00
2023,08,09,11,40,387.00
2023,08,09,11,41,381.80
2023,08,09,11,42,364.80
2023,08,09,11,43,335.90
2023,08,09,11,44,322.00
2023,08,09,11,45,317.70
2023,08,09,11,46,308.50
2023,08,09,11,47,312.80
2023,08,09,11,48,332.50
2023,08,09,11,49,346.60
2023,08,09,11,50,369.00
2023,08,09,11,51,415.00
2023,08,09,11,52,379.60
2023,08,09,11,53,368.20
2023,08,09,11,54,364.40
2023,08,09,11,55,366.80
2023,08,09,11,56,360.90
2023,08,09,11,57,331.70
2023,08,09,11,58,312.80
2023,08,09,11,59,350.50
2023,08,09,12,00,411.00
2023,08,09,12,01,411.00
2023,08,09,12,02,411.00
2023,08,09,12,03,503.60
2023,08,09,12,04,505.30
2023,08,09,12,05,385.60
2023,08,09,12,06,417.80
2023,08,09,12,07,436.00
2023,08,09,12,08,436.00
2023,08,09,12,09,436.00
2023,08,09,12,10,479.40
2023,08,09,12,11,425.90
2023,08,09,12,12,362.30
2023,08,09,12,13,313.50
2023,08,09,12,14,279.50
2023,08,09,12,15,261.60
2023,08,09,12,16,257.20
2023,08,09,12,17,251.60
2023,08,09,12,18,256.00
2023,08,09,12,19,294.60
2023,08,09,12,20,262.70
2023,08,09,12,21,241.50
2023,08,09,12,22,215.60
2023,08,09,12,23,188.80
2023,08,09,12,24,164.20
2023,08,09,12,25,147.80
2023,08,09,12,26,137.80
2023,08,09,12,27,134.00
2023,08,09,12,28,134.40
2023,08,09,12,29,135.00
2023,08,09,12,30,132.80
2023,08,09,12,31,132.00
2023,08,09,12,32,133.70
2023,08,09,12,33,132.00
2023,08,09,12,34,131.30
2023,08,09,12,35,131.80
2023,08,09,12,36,138.20
2023,08,09,12,37,146.60
2023,08,09,12,38,156.60
2023,08,09,12,39,167.40
2023,08,09,12,40,178.20
2023,08,09,12,41,186.80
2023,08,09,12,42,192.50
2023,08,09,12,43,199.10
2023,08,09,12,44,208.30
2023,08,09,12,45,223.00
2023,08,09,12,46,236.30
2023,08,09,12,47,239.00
2023,08,09,12,48,237.90
2023,08,09,12,49,235.10
2023,08,09,12,50,234.00
2023,08,09,12,51,236.20
2023,08,09,12,52,244.80
2023,08,09,12,53,252.90
2023,08,09,12,54,254.50
2023,08,09,12,55,251.20
2023,08,09,12,56,244.70
2023,08,09,12,57,232.60
2023,08,09,12,58,227.00
2023,08,09,12,59,197.20
2023,08,09,13,00,174.50
2023,08,09,13,01,160.20
2023,08,09,13,02,151.60
2023,08,09,13,03,149.90
2023,08,09,13,04,149.80
2023,08,09,13,05,148.20
2023,08,09,13,06,142.10
2023,08,09,13,07,141.00
2023,08,09,13,08,141.00
2023,08,09,13,09,157.60
2023,08,09,13,10,211.60
2023,08,09,13,11,243.00
2023,08,09,13,12,397.00
2023,08,09,13,13,405.20
2023,08,09,13,14,385.60
2023,08,09,13,15,403.50
2023,08,09,13,16,478.60
2023,08,09,13,17,489.00
2023,08,09,13,18,624.60
2023,08,09,13,19,708.00
2023,08,09,13,20,586.70
2023,08,09,13,21,564.00
2023,08,09,13,22,564.00
2023,08,09,13,23,564.00
2023,08,09,13,24,564.00
2023,08,09,13,25,625.30
2023,08,09,13,26,661.00
2023,08,09,13,27,353.30
2023,08,09,13,28,319.50
2023,08,09,13,29,321.80
2023,08,09,13,30,309.70
2023,08,09,13,31,320.50
2023,08,09,13,32,319.80
2023,08,09,13,33,299.70
2023,08,09,13,34,300.10
2023,08,09,13,35,323.00
2023,08,09,13,36,324.90
2023,08,09,13,37,326.40
2023,08,09,13,38,321.90
2023,08,09,13,39,342.80
2023,08,09,13,40,352.00
2023,08,09,13,41,354.50
2023,08,09,13,42,355.00
2023,08,09,13,43,355.00
2023,08,09,13,44,389.60
2023,08,09,13,45,463.50
2023,08,09,13,46,473.00
2023,08,09,13,47,482.80
2023,08,09,13,48,491.20
2023,08,09,13,49,452.30
2023,08,09,13,50,390.00
2023,08,09,13,51,390.00
2023,08,09,13,52,390.00
2023,08,09,13,53,750.20
2023,08,09,13,54,949.30
2023,08,09,13,55,936.60
2023,08,09,13,56,946.80
2023,08,09,13,57,978.50
2023,08,09,13,58,994.80
2023,08,09,13,59,1021.60
2023,08,09,14,00,1016.90
2023,08,09,14,01,1064.00
2023,08,09,14,02,1155.50
2023,08,09,14,03,1203.90
2023,08,09,14,04,1076.60
2023,08,09,14,05,570.20
2023,08,09,14,06,591.00
2023,08,09,14,07,591.00
2023,08,09,14,08,591.00
2023,08,09,14,09,591.00
2023,08,09,14,10,586.00
2023,08,09,14,11,541.00
2023,08,09,14,12,571.80
2023,08,09,14,13,628.50
2023,08,09,14,14,628.00
2023,08,09,14,15,999.40
2023,08,09,14,16,1132.00
2023,08,09,14,17,1121.60
2023,08,09,14,18,1028.00
2023,08,09,14,19,1028.00
2023,08,09,14,20,1028.00
2023,08,09,14,21,985.10
2023,08,09,14,22,958.60
2023,08,09,14,23,986.70
2023,08,09,14,24,991.00
2023,08,09,14,25,991.00
2023,08,09,14,26,988.80
2023,08,09,14,27,986.00
2023,08,09,14,28,963.40
2023,08,09,14,29,943.50
2023,08,09,14,30,936.00
2023,08,09,14,31,934.00
2023,08,09,14,32,925.00
2023,08,09,14,33,922.90
2023,08,09,14,34,915.40
2023,08,09,14,35,909.80
2023,08,09,14,36,906.10
2023,08,09,14,37,902.30
2023,08,09,14,38,860.80
2023,08,09,14,39,892.80
2023,08,09,14,40,874.40
2023,08,09,14,41,869.10
2023,08,09,14,42,874.60
2023,08,09,14,43,879.00
2023,08,09,14,44,879.00
2023,08,09,14,45,924.80
2023,08,09,14,46,940.40
2023,08,09,14,47,957.20
2023,08,09,14,48,945.90
2023,08,09,14,49,983.80
2023,08,09,14,50,1023.00
2023,08,09,14,51,1023.00
2023,08,09,14,52,677.20
2023,08,09,14,53,659.00
2023,08,09,14,54,659.00
2023,08,09,14,55,869.00
2023,08,09,14,56,1079.00
2023,08,09,14,57,1079.00
2023,08,09,14,58,1079.00
2023,08,09,14,59,1004.70
2023,08,09,15,00,299.00
2023,08,09,15,01,340.60
2023,08,09,15,02,418.00
2023,08,09,15,03,769.60
2023,08,09,15,04,992.80
2023,08,09,15,05,999.80
2023,08,09,15,06,1002.00
2023,08,09,15,07,1002.00
2023,08,09,15,08,851.80
2023,08,09,15,09,573.00
2023,08,09,15,10,675.60
2023,08,09,15,11,774.00
2023,08,09,15,12,845.70
2023,08,09,15,13,853.00
2023,08,09,15,14,739.10
2023,08,09,15,15,420.00
2023,08,09,15,16,420.00
2023,08,09,15,17,420.00
2023,08,09,15,18,420.00
2023,08,09,15,19,303.50
2023,08,09,15,20,280.70
2023,08,09,15,21,279.00
2023,08,09,15,22,279.00
2023,08,09,15,23,290.20
2023,08,09,15,24,289.00
2023,08,09,15,25,285.30
2023,08,09,15,26,287.10
2023,08,09,15,27,286.50
2023,08,09,15,28,302.00
2023,08,09,15,29,302.00
2023,08,09,15,30,290.00
2023,08,09,15,31,281.20
2023,08,09,15,32,283.00
2023,08,09,15,33,314.50
2023,08,09,15,34,302.60
2023,08,09,15,35,333.80
2023,08,09,15,36,370.90
2023,08,09,15,37,333.50
2023,08,09,15,38,321.40
2023,08,09,15,39,327.00
2023,08,09,15,40,327.00
2023,08,09,15,41,322.00
2023,08,09,15,42,368.20
2023,08,09,15,43,364.90
2023,08,09,15,44,406.70
2023,08,09,15,45,493.40
2023,08,09,15,46,471.70
2023,08,09,15,47,427.60
2023,08,09,15,48,415.80
2023,08,09,15,49,466.00
2023,08,09,15,50,522.00
2023,08,09,15,51,527.20
2023,08,09,15,52,487.90
2023,08,09,15,53,476.50
2023,08,09,15,54,470.00
2023,08,09,15,55,437.00
2023,08,09,15,56,406.10
2023,08,09,15,57,372.60
2023,08,09,15,58,363.50
2023,08,09,15,59,385.80
2023,08,09,16,00,381.50
2023,08,09,16,01,301.20
2023,08,09,16,02,249.50
2023,08,09,16,03,238.80
2023,08,09,16,04,256.20
2023,08,09,16,05,295.10
2023,08,09,16,06,313.00
2023,08,09,16,07,553.00
2023,08,09,16,08,649.00
2023,08,09,16,09,311.80
2023,08,09,16,10,400.10
2023,08,09,16,11,798.00
2023,08,09,16,12,798.00
2023,08,09,16,13,798.00
2023,08,09,16,14,479.20
2023,08,09,16,15,373.00
2023,08,09,16,16,793.60
2023,08,09,16,17,768.50
2023,08,09,16,18,742.50
2023,08,09,16,19,721.00
2023,08,09,16,20,721.00
2023,08,09,16,21,721.00
2023,08,09,16,22,721.00
2023,08,09,16,23,687.50
2023,08,09,16,24,719.00
2023,08,09,16,25,571.40
2023,08,09,16,26,350.00
2023,08,09,16,27,501.80
2023,08,09,16,28,634.50
2023,08,09,16,29,627.30
2023,08,09,16,30,610.20
2023,08,09,16,31,607.00
2023,08,09,16,32,615.00
2023,08,09,16,33,617.00
2023,08,09,16,34,622.20
2023,08,09,16,35,617.70
2023,08,09,16,36,604.80
2023,08,09,16,37,608.60
2023,08,09,16,38,613.10
2023,08,09,16,39,585.50
2023,08,09,16,40,566.50
2023,08,09,16,41,587.40
2023,08,09,16,42,596.00
2023,08,09,16,43,584.20
2023,08,09,16,44,597.80
2023,08,09,16,45,597.90
2023,08,09,16,46,601.80
2023,08,09,16,47,591.50
2023,08,09,16,48,587.00
2023,08,09,16,49,579.50
2023,08,09,16,50,571.60
2023,08,09,16,51,565.30
2023,08,09,16,52,557.00
2023,08,09,16,53,556.30
2023,08,09,16,54,552.50
2023,08,09,16,55,548.20
2023,08,09,16,56,544.00
2023,08,09,16,57,534.40
2023,08,09,16,58,523.50
2023,08,09,16,59,516.00
2023,08,09,17,00,484.00
2023,08,09,17,01,473.00
2023,08,09,17,02,496.80
2023,08,09,17,03,486.30
2023,08,09,17,04,503.50
2023,08,09,17,05,500.20
2023,08,09,17,06,509.10
2023,08,09,17,07,512.00
2023,08,09,17,08,503.50
2023,08,09,17,09,497.00
2023,08,09,17,10,497.00